• In Belgium
  • List of Countries
  • For 7 days
  • Water Temperature
  • Satellite Maps
  • Weather Map
  • Weather Widgets
  • user-avatar
    Login

    Hourly Weather Chernigiv

    Today, 26 September, Wednesday

    Time Temperature Precipitation Wind Pressure Humidity
    00:00 +4°C° 0 mm 4 mps 757 mmHg 81%
    01:00 +3°C° 0 mm 4 mps 757 mmHg 81%
    02:00 +3°C° 0 mm 4 mps 757 mmHg 82%
    03:00 +3°C° 0 mm 4 mps 758 mmHg 82%
    04:00 +1°C° 0 mm 4 mps 759 mmHg 82%
    05:00 +2°C° 0 mm 3 mps 759 mmHg 82%
    06:00 +3°C° 0 mm 4 mps 760 mmHg 77%
    07:00 +3°C° 0 mm 4 mps 760 mmHg 73%
    08:00 +4°C° 0 mm 4 mps 761 mmHg 68%
    09:00 +6°C° 0 mm 4 mps 761 mmHg 62%
    10:00 +8°C° 0 mm 4 mps 761 mmHg 56%
    11:00 +9°C° 0 mm 5 mps 761 mmHg 50%
    12:00 +11°C° 0 mm 4 mps 761 mmHg 48%
    13:00 +12°C° 0 mm 4 mps 761 mmHg 47%
    14:00 +12°C° 0 mm 4 mps 760 mmHg 46%
    15:00 +12°C° 0 mm 4 mps 760 mmHg 49%
    16:00 +11°C° 0 mm 3 mps 760 mmHg 52%
    17:00 +10°C° 0 mm 2 mps 760 mmHg 55%
    18:00 +9°C° 0 mm 3 mps 760 mmHg 56%
    19:00 +8°C° 0 mm 3 mps 759 mmHg 57%
    20:00 +7°C° 0 mm 3 mps 759 mmHg 59%
    21:00 +6°C° 0 mm 4 mps 759 mmHg 58%
    22:00 +7°C° 0 mm 5 mps 758 mmHg 57%
    23:00 +7°C° 0 mm 5 mps 758 mmHg 56%

    Tomorrow, 27 September, Thursday

    Time Temperature Precipitation Wind Pressure Humidity
    00:00 +7°C° 0 mm 6 mps 757 mmHg 58%
    01:00 +7°C° 0 mm 6 mps 757 mmHg 61%
    02:00 +7°C° 0 mm 6 mps 756 mmHg 63%
    03:00 +6°C° 0.1 mm 7 mps 755 mmHg 65%
    04:00 +6°C° 0.1 mm 7 mps 755 mmHg 67%
    05:00 +6°C° 0.1 mm 8 mps 754 mmHg 70%
    06:00 +6°C° 0.1 mm 8 mps 754 mmHg 73%
    07:00 +6°C° 0.1 mm 8 mps 753 mmHg 76%
    08:00 +7°C° 0.1 mm 8 mps 753 mmHg 79%
    09:00 +7°C° 0.2 mm 8 mps 753 mmHg 80%
    10:00 +8°C° 0.2 mm 7 mps 753 mmHg 81%
    11:00 +9°C° 0.2 mm 7 mps 753 mmHg 81%
    12:00 +9°C° 0 mm 7 mps 753 mmHg 80%
    13:00 +10°C° 0 mm 7 mps 753 mmHg 79%
    14:00 +11°C° 0 mm 7 mps 752 mmHg 78%
    15:00 +11°C° 0 mm 6 mps 752 mmHg 80%
    16:00 +11°C° 0 mm 6 mps 752 mmHg 81%
    17:00 +12°C° 0 mm 5 mps 752 mmHg 82%
    18:00 +12°C° 0 mm 5 mps 752 mmHg 84%
    19:00 +10°C° 0 mm 5 mps 753 mmHg 87%
    20:00 +11°C° 0 mm 4 mps 753 mmHg 89%
    21:00 +11°C° 0 mm 4 mps 753 mmHg 91%
    22:00 +10°C° 0 mm 4 mps 753 mmHg 93%
    23:00 +10°C° 0 mm 4 mps 753 mmHg 95%

    Day after tomorrow, 28 September, Friday

    Time Temperature Precipitation Wind Pressure Humidity
    00:00 +10°C° 0 mm 4 mps 752 mmHg 95%
    01:00 +10°C° 0 mm 4 mps 752 mmHg 96%
    02:00 +10°C° 0 mm 4 mps 752 mmHg 96%
    03:00 +10°C° 0 mm 4 mps 751 mmHg 96%
    04:00 +10°C° 0 mm 4 mps 751 mmHg 96%
    05:00 +9°C° 0 mm 5 mps 750 mmHg 96%
    06:00 +10°C° 0 mm 5 mps 750 mmHg 93%
    07:00 +11°C° 0 mm 6 mps 750 mmHg 90%
    08:00 +13°C° 0 mm 6 mps 750 mmHg 86%
    09:00 +14°C° 0 mm 7 mps 749 mmHg 80%
    10:00 +16°C° 0 mm 7 mps 749 mmHg 73%
    11:00 +18°C° 0 mm 7 mps 749 mmHg 66%
    12:00 +20°C° 0 mm 7 mps 748 mmHg 62%
    13:00 +21°C° 0 mm 8 mps 748 mmHg 58%
    14:00 +22°C° 0 mm 8 mps 748 mmHg 54%
    15:00 +21°C° 0 mm 6 mps 748 mmHg 57%
    16:00 +19°C° 0 mm 5 mps 748 mmHg 61%
    17:00 +18°C° 0 mm 4 mps 748 mmHg 64%
    18:00 +17°C° 0 mm 4 mps 748 mmHg 71%
    19:00 +14°C° 0 mm 3 mps 749 mmHg 78%
    20:00 +12°C° 0 mm 3 mps 749 mmHg 86%
    21:00 +13°C° 0 mm 2 mps 749 mmHg 85%
    22:00 +13°C° 0 mm 2 mps 750 mmHg 84%
    23:00 +12°C° 0 mm 2 mps 750 mmHg 84%

    29 September, Saturday

    Time Temperature Precipitation Wind Pressure Humidity
    00:00 +12°C° 0 mm 1 mps 750 mmHg 84%
    01:00 +12°C° 0 mm 1 mps 750 mmHg 85%
    02:00 +11°C° 0 mm 1 mps 751 mmHg 86%
    03:00 +11°C° 0 mm 1 mps 751 mmHg 87%
    04:00 +10°C° 0 mm 1 mps 751 mmHg 89%
    05:00 +10°C° 0 mm 1 mps 751 mmHg 90%
    06:00 +10°C° 0 mm 1 mps 751 mmHg 86%
    07:00 +11°C° 0 mm 1 mps 751 mmHg 82%
    08:00 +12°C° 0 mm 1 mps 752 mmHg 78%
    09:00 +13°C° 0 mm 1 mps 752 mmHg 71%
    10:00 +14°C° 0 mm 2 mps 752 mmHg 65%
    11:00 +15°C° 0 mm 2 mps 752 mmHg 58%
    12:00 +16°C° 0 mm 2 mps 752 mmHg 55%
    13:00 +16°C° 0 mm 2 mps 752 mmHg 53%
    14:00 +17°C° 0 mm 2 mps 752 mmHg 50%
    15:00 +16°C° 0.1 mm 2 mps 752 mmHg 54%
    16:00 +15°C° 0.1 mm 2 mps 753 mmHg 59%
    17:00 +14°C° 0.1 mm 2 mps 753 mmHg 64%
    18:00 +13°C° 0 mm 2 mps 754 mmHg 68%
    19:00 +12°C° 0 mm 2 mps 754 mmHg 72%
    20:00 +10°C° 0 mm 3 mps 755 mmHg 76%
    21:00 +9°C° 0 mm 3 mps 755 mmHg 78%
    22:00 +8°C° 0 mm 3 mps 755 mmHg 80%
    23:00 +8°C° 0 mm 2 mps 755 mmHg 83%

    30 September, Sunday

    Time Temperature Precipitation Wind Pressure Humidity
    00:00 +7°C° 0 mm 2 mps 756 mmHg 84%
    01:00 +7°C° 0 mm 3 mps 756 mmHg 85%
    02:00 +5°C° 0 mm 3 mps 756 mmHg 87%
    03:00 +6°C° 0 mm 2 mps 757 mmHg 88%
    04:00 +5°C° 0 mm 2 mps 757 mmHg 89%
    05:00 +5°C° 0 mm 2 mps 757 mmHg 91%
    06:00 +6°C° 0 mm 2 mps 757 mmHg 86%
    07:00 +7°C° 0 mm 2 mps 757 mmHg 82%
    08:00 +8°C° 0 mm 2 mps 758 mmHg 77%
    09:00 +9°C° 0 mm 2 mps 758 mmHg 70%
    10:00 +12°C° 0 mm 2 mps 758 mmHg 62%
    11:00 +13°C° 0 mm 2 mps 758 mmHg 54%
    12:00 +14°C° 0 mm 2 mps 758 mmHg 50%
    13:00 +14°C° 0 mm 2 mps 757 mmHg 46%
    14:00 +15°C° 0 mm 2 mps 757 mmHg 42%
    15:00 +14°C° 0 mm 2 mps 757 mmHg 46%
    16:00 +13°C° 0 mm 2 mps 757 mmHg 49%
    17:00 +12°C° 0 mm 1 mps 757 mmHg 53%
    18:00 +11°C° 0 mm 1 mps 757 mmHg 55%
    19:00 +9°C° 0 mm 1 mps 757 mmHg 57%
    20:00 +8°C° 0 mm 1 mps 757 mmHg 59%
    21:00 +8°C° 0 mm 1 mps 757 mmHg 60%
    22:00 +8°C° 0 mm 1 mps 757 mmHg 61%
    23:00 +7°C° 0 mm 1 mps 757 mmHg 62%

    1 October, Monday

    Time Temperature Precipitation Wind Pressure Humidity
    00:00 +7°C° 0 mm 1 mps 757 mmHg 64%
    01:00 +7°C° 0 mm 1 mps 757 mmHg 65%
    02:00 +6°C° 0 mm 1 mps 756 mmHg 66%
    03:00 +6°C° 0 mm 1 mps 756 mmHg 67%
    04:00 +6°C° 0 mm 1 mps 756 mmHg 68%
    05:00 +5°C° 0 mm 1 mps 756 mmHg 69%
    06:00 +7°C° 0 mm 1 mps 756 mmHg 66%
    07:00 +8°C° 0 mm 1 mps 756 mmHg 63%
    08:00 +9°C° 0 mm 1 mps 756 mmHg 60%
    09:00 +11°C° 0 mm 1 mps 755 mmHg 55%
    10:00 +12°C° 0 mm 1 mps 755 mmHg 49%
    11:00 +14°C° 0 mm 2 mps 755 mmHg 44%
    12:00 +15°C° 0 mm 2 mps 754 mmHg 41%
    13:00 +15°C° 0 mm 2 mps 754 mmHg 39%
    14:00 +16°C° 0 mm 2 mps 753 mmHg 37%
    15:00 +15°C° 0 mm 1 mps 753 mmHg 41%
    16:00 +14°C° 0 mm 1 mps 752 mmHg 46%
    17:00 +13°C° 0 mm 1 mps 752 mmHg 51%
    18:00 +12°C° 0 mm 1 mps 752 mmHg 53%
    19:00 +11°C° 0 mm 1 mps 752 mmHg 55%
    20:00 +10°C° 0 mm 1 mps 752 mmHg 57%
    21:00 +9°C° 0 mm 1 mps 752 mmHg 59%
    22:00 +8°C° 0 mm 2 mps 752 mmHg 61%
    23:00 +8°C° 0 mm 2 mps 752 mmHg 63%
    Show more